Regional Weather Roundup
Issued by NWS Grand Forks, ND

Home | Current Version | Previous Version | Graphics & Text | Print | Product List | Glossary On
Versions: 1 2 3 4 5 6 7 8 9 10 11 12 13 14 15 16 17 18 19 20 21 22 23 24 25 26 27 28 29 30 31 32 33 34 35 36 37 38 39 40 41 42 43 44 45 46 47 48 49 50
000
ASUS43 KFGF 040510
RWRFGF
PRAIRIE TO PINES  WEATHER ROUNDUP
NATIONAL WEATHER SERVICE EASTERN NORTH DAKOTA/GRAND FORKS ND
1200 AM CDT MON MAY 04 2015

 **SATELLITE DATA USED TO AUGMENT SKY COVER AT AUTOMATED STATIONS**
 *****  WEATHER ACROSS EASTERN NORTH DAKOTA  *****

CITY           SKY/WX    TMP DP  RH WIND       PRES   REMARKS
GRAND FORKS    CLEAR     44  28  53 NW6       30.02R
GRAND FRKS AFB CLEAR     44  26  49 NW5       30.03R
GRAND FRKS NWS   N/A     46 N/A N/A N5          N/A
DEVILS LAKE    PTCLDY    45  32  61 NW8       30.06R
FARGO          CLEAR     50  28  42 NW6       30.01R
WAHPETON ARPT  CLEAR     52  21  30 N9        30.03R
$$

 ***** WEATHER ACROSS CENTRAL AND WESTERN NORTH DAKOTA  *****

CITY           SKY/WX    TMP DP  RH WIND       PRES   REMARKS
BISMARCK       PTCLDY    49  24  37 CALM      30.10R
MINOT          FAIR      44  26  49 W8        30.09R
JAMESTOWN      PTCLDY    46  26  45 NW8       30.05R
MINOT AFB      CLEAR     35  25  66 W8        30.08R
GARRISON         N/A     41  28  60 N5        30.09R
WILLISTON      PTCLDY    43  22  43 CALM      30.11R
DICKINSON      PTCLDY    45  26  47 NE7       30.09R
HETTINGER      PTCLDY    44  26  49 CALM      30.12R
$$

 *****  OTHER AIRPORT OBSERVATIONS IN OUR AREA  *****

CITY           SKY/WX    TMP DP  RH WIND       PRES   REMARKS
WALHALLA       FAIR      45  32  61 NW6       30.06R
GRAFTON AIRPOR FAIR      48  32  53 N8        30.04R
VALLEY CITY AR FAIR      45  25  45 NW9       30.05R
CANDO          FAIR      41  32  70 N8        30.07R
CAVALIER APRT  FAIR      48  32  53 N8        30.05R
GWINNER        CLEAR     50  25  37 NW8       30.05R
ROLLA          NOT AVBL
 ***** THE ABOVE OBSERVATIONS ARE NON NWS ARE NOT QUALITY
       CONTROLLED AND MAY MIS-REPORT RAIN FOR SNOW...
$$

  *****  WEATHER ACROSS NORTHERN MINNESOTA  *****

CITY           SKY/WX    TMP DP  RH WIND       PRES   REMARKS
FLAG ISLAND    CLEAR     48  39  71 NW15      30.00R
WARROAD        CLEAR     45  37  76 NW3       30.02R
ROSEAU         CLEAR     43  34  70 CALM      30.02R
HALLOCK        CLEAR     46  30  53 N7        30.03R
THF RVR FALLS  CLEAR     48  34  57 CALM      30.02R
BAUDETTE       CLEAR     44  37  76 N5        30.00R
WASKISH        CLEAR     46  36  66 CALM      30.01R
CROOKSTON      CLEAR     48  30  49 NE3       30.02R
$$
  *****  WEATHER ACROSS CENTRAL AND WEST MINNESOTA  *****

CITY           SKY/WX    TMP DP  RH WIND       PRES   REMARKS
FOSSTON        NOT AVBL
BEMIDJI        CLEAR     49  33  52 N3        30.00R
PARK RAPIDS    CLEAR     53  26  35 N5        30.01R
ELBOW LAKE     FAIR      51  30  44 N7        30.02R
WADENA         CLEAR     46  28  49 NW6       30.00R
DETROIT LAKES  CLEAR     52  28  40 N5        30.02R
MOORHEAD       CLEAR     48  25  40 NW8       30.02R
FERGUS FALLS   CLEAR     48  27  43 N7        30.03R
MORRIS MN      CLEAR     52  27  37 N8        30.02R
STAPLES        CLEAR     45  30  57 CALM      30.01R
$$
  *****  WEATHER ELSEWHERE ACROSS MINNESOTA  *****

CITY           SKY/WX    TMP DP  RH WIND       PRES   REMARKS
DULUTH         PTCLDY    54  29  38 NW10      29.94R
INTRNTL FALLS  CLEAR     44  34  67 NW6       29.98R
ELY            CLEAR     48  30  49 NW3       29.97R
CLOQUET        PTCLDY    50  27  40 NW7       29.96R
WHEATON        CLEAR     48  25  40 NW6       30.05R
BRAINERD       CLEAR     43  35  73 N5        30.00R
HIBBING        CLEAR     44  29  55 N7        29.99R
ALEXANDRIA     CLEAR     50  32  50 W3        30.02R
SAINT CLOUD    CLEAR     47  37  68 NW5       29.97R
MINNEAPOLIS    CLOUDY    59  45  59 N6        29.93R
$$

  *****  WEATHER ACROSS SOUTH DAKOTA  *****

CITY           SKY/WX    TMP DP  RH WIND       PRES   REMARKS
SIOUX FALLS    PTCLDY    55  32  41 N8        30.00R THUNDER
BROOKINGS      MOCLDY    50  32  50 N6        30.03S
WATERTOWN      CLEAR     45  30  55 N7        30.04R
HURON          CLEAR     49  29  46 N9        30.03R
SISSETON         N/A     46  25  43 N12       30.03R
ABERDEEN       CLEAR     47  26  44 N8        30.05R
MITCHELL       CLEAR     52  34  50 NE5       30.03R
PIERRE         CLEAR     48  24  39 N8        30.05R
MOBRIDGE       CLEAR     49  25  39 NE10      30.05R
RAPID CITY     PTCLDY    49  34  56 NE12      30.08S
$$

  *****  SOME WEATHER IN NEARBY STATES *****

CITY           SKY/WX    TMP DP  RH WIND       PRES   REMARKS
GLASGOW MT     CLEAR     46  26  45 E9        30.06S
GREAT FALLS MT CLEAR     45  31  58 E7        29.96R
CHEYENNE WY    CLOUDY    49  43  80 N3        30.11S
SCOTTSBLUFF NE MOCLDY    53  40  61 E8        30.06R
OMAHA NE       CLOUDY    68  56  65 N14       29.85R
DES MOINES IA  CLOUDY    70  58  65 S6        29.86R
DAVENPORT IA   CLOUDY    73  52  47 S14       29.91R
CHICAGO IL     PTCLDY    64  53  67 S13       29.91F
EAU CLAIRE WI  CLOUDY    55  53  93 CALM      29.89R
LA CROSSE WI   LGT RAIN  62  58  86 S8G22     29.82F
$$

  *****  SOME NATIONAL WEATHER *****

CITY           SKY/WX    TMP DP  RH WIND       PRES   REMARKS
LA GUARDIA NY  CLEAR     58  47  66 S5        30.16R
RALEIGH NC     PTCLDY    62  48  60 SW9       30.24R
ATLANTA GA     PTCLDY    66  50  56 S3        30.20S
NEW ORLEANS LA PTCLDY    68  56  65 CALM      30.12F
OKLAHOMA CITY  CLOUDY    65  56  72 S10       29.94S
ALBUQUERQUE NM PTCLDY    63  36  36 NW7       30.00S
SALT LAKE CITY MOCLDY    65  44  46 E6        29.89R
LOS ANGELES CA PTCLDY    58  51  78 W14       29.89R
BOISE ID       CLEAR     62  30  29 CALM      29.82R
SEATTLE WA     CLEAR     57  36  44 N5        29.89S
$$

*** WEATHER ACROSS MANITOBA...SASKATCHEWAN AND ONTARIO ***
                ***ONTARIO***

CITY           SKY/WX    TMP DP  RH WIND       PRES   REMARKS
GERALDTON      PTCLDY    41  36  81 W3        29.84R
THUNDER BAY    PTCLDY    48  28  46 W8        29.89R
SIOUX LOOKOUT  PTCLDY    41  37  87 NW5       29.93R
TORONTO        PTCLDY    63  43  48 SW6       30.04R
BIG TROUT LK   FLURRIES  32  30  93 NW5       29.91S
PICKLE LAKE    NOT AVBL
DRYDEN         CLEAR     45  39  81 W6        29.95R
KENORA         CLEAR     43  39  87 NW9       29.99R
$$
                *** MANITOBA***

CITY           SKY/WX    TMP DP  RH WIND       PRES   REMARKS
BRANDON        CLEAR     41  28  60 NE2       30.08R
DAUPHIN        CLEAR     43  32  65 SW12      30.04R
ISLAND LAKE    CLOUDY    37  30  75 CALM      29.96R
PILOT MOUND      N/A     37  30  75 N5          N/A
THE PAS        PTCLDY    39  28  65 NW5       30.03R
THOMPSON       MOCLDY    32  25  74 S5        29.94R
WINNIPEG       CLEAR     41  37  87 NE8       30.07R
LYNN LAKE      MOCLDY    32  30  93 W7        29.97R
CHURCHILL      LGT SNOW  23  21  93 N12       29.93S WCI  12
GILLAM         PTCLDY    28  25  86 S6        29.94S WCI  22
$$
                ***SASKATCHEWAN***

CITY           SKY/WX    TMP DP  RH WIND       PRES   REMARKS
ESTEVAN        CLEAR     43  37  81 CALM      30.10R
KINDERSLEY     PTCLDY    36  30  80 SE13      30.07S
LLOYDMINSTER   CLEAR     34  30  86 SW8       30.05R
PRINCE ALBERT  PTCLDY    37  27  65 CALM      30.07R
REGINA         PTCLDY    39  32  75 SW3       30.10S
YORKTON        CLEAR     39  34  81 W10       30.07R
N. BATTLEFORD  CLEAR     37  30  75 CALM      30.09R
LA RONGE       PTCLDY    30  21  69 W2        30.08R
SASKATOON      CLEAR     36  28  75 W9        30.09R
SWIFT CURRENT  MOCLDY    36  28  75 SE8       30.09R
$$
NOTE: THESE ARE AUTOMATED STATIONS WITH LIMITED QUALITY CONTROL
      "FAIR" INDICATES FEW OR NO CLOUDS BELOW 12,000 FEET WITH NO
      SIGNIFICANT WEATHER AND/OR OBSTRUCTIONS TO VISIBILITY.
      SKY/WX - SKY CONDITION AND SIGNIFICANT WEATHER.
      TMP - AIR TEMPERATURE.    DP   - DEWPOINT TEMPERATURE.
      RH  - RELATIVE HUMIDITY.  PRES - PRESSURE.
      HX  - HEAT INDEX.         WCI  - WIND CHILL INDEX.
$



USA.gov is the U.S. government's official web portal to all federal, state and local government web resources and services.